Regional Weather Roundup
Issued by NWS

Home | Current Version | Previous Version | Text Only | Print | Product List | Glossary On
Versions: 1 2 3 4 5 6 7 8 9 10 11 12 13 14 15 16 17 18 19 20 21 22 23 24 25 26 27 28 29 30 31 32 33 34 35 36 37 38 39 40 41 42 43 44 45 46 47 48 49 50
640
ASUS45 KTFX 200910
RWRMT
MONTANA REGIONAL WEATHER ROUNDUP
NATIONAL WEATHER SERVICE GREAT FALLS MT
200 AM MST FRI JAN 20 2017

NOTE: "FAIR" INDICATES FEW OR NO CLOUDS BELOW 12000 FEET WITH NO
SIGNIFICANT WEATHER AND/OR OBSTRUCTIONS TO VISIBILITY.

MTZ001>007-043-201000-
WEST OF THE DIVIDE

CITY           SKY/WX    TMP DP  RH WIND       PRES   REMARKS
KALISPELL      FOG       25  24  96 CALM      29.53F VSB 1/2
MISSOULA       FOG       32  32 100 CALM      29.57F VSB 1/4
BUTTE          FLURRIES  20  17  88 CALM      29.52F
MULLAN PASS    CLOUDY    27  23  85 CALM      29.47F FOG
ANACONDA         N/A     30  28  93 CALM      29.53S
DEER LODGE       N/A     32  32 100 CALM      29.56S
EUREKA           N/A     34  30  86 S7        29.52F WCI  28
HAMILTON         N/A     28  28 100 CALM      29.56S VSB 0
RONAN            N/A     29  25  85 W2        29.61F
$$

MTZ008-052>055-201000-
SOUTHWEST MONTANA

CITY           SKY/WX    TMP DP  RH WIND       PRES   REMARKS
BOZEMAN        CLOUDY    33  27  78 N5        29.53S
DILLON         CLOUDY    27  12  53 SE7       29.52F WCI  19
W YELLOWSTONE  CLOUDY    25  23  93 SW5       29.56F
ENNIS          CLOUDY    32  23  69 S15       29.58S WCI  22
TWIN BRIDGES     N/A     27  17  65 E3        29.59S
$$

MTZ009-010-012-014-046-048-049-054-201000-
EAST SLOPES AND CENTRAL MONTANA

CITY           SKY/WX    TMP DP  RH WIND       PRES   REMARKS
CUT BANK       MOCLDY    33  23  66 W15       29.43S WCI  23
GREAT FALLS    CLOUDY    35  26  69 SW12      29.46S WCI  27
MALMSTROM AFB  CLOUDY    35  28  75 SW13      29.46F WCI  27
HELENA         CLOUDY    31  27  85 SW3       29.52S
AUGUSTA          N/A     30  21  67 W12       29.45F WCI  21
BOWMANS CRNR   MOCLDY    30  24  80 SW12      29.45F WCI  20
CHOTEAU          N/A     32  23  69 CALM      29.46F
POWER          CLOUDY    31  26  80 W5        29.45S
RAYNESFORD     CLOUDY    40  23  51 SW14      29.46S
ULM            MOCLDY    35  27  74 MISG      29.47F
$$

MTZ011-013-016-021-045-047-050-051-201000-
NORTH CENTRAL MONTANA

CITY           SKY/WX    TMP DP  RH WIND       PRES   REMARKS
HAVRE          CLOUDY    34  31  88 SW12      29.44S WCI  25
LEWISTOWN      CLOUDY    35  31  85 S8        29.45F WCI  29
CHINOOK          N/A     34  28  80 CALM      29.44S
DENTON         MOCLDY    37  30  74 SW8       29.43S WCI  31
FORT BENTON      N/A     37  28  70 MISG      29.47S
GEYSER           N/A     37  27  67 W14       29.44F WCI  28
GRASS RANGE    CLOUDY    36  33  89 SW7       29.43S WCI  31
JUDITH GAP     MOCLDY    34  30  85 S8        29.45F WCI  27
ROY            CLOUDY    37  33  85 MISG      29.44S
STANFORD       CLOUDY    37  27  69 W9        29.45S WCI  30
WINIFRED       CLOUDY    37  31  77 W6        29.44S
$$

MTZ017>020-022>027-061-062-201000-
NORTHEAST MONTANA

CITY           SKY/WX    TMP DP  RH WIND       PRES   REMARKS
GLASGOW        CLOUDY    29  24  82 W9        29.43S WCI  20
JORDAN           N/A     35  32  88 W8        29.45R WCI  29
SIDNEY         CLOUDY    15  13  91 S8        29.42S WCI   4
WOLF POINT     CLOUDY    19  16  88 SW9       29.44S WCI   8
PLENTYWOOD       N/A     21  19  93 W3        29.40R
POPLAR           N/A     19  18  93 W7        29.45R WCI  10
$$

MTZ028>42-056>058-201000-
SOUTHCENTRAL AND SOUTHEAST MONTANA

CITY           SKY/WX    TMP DP  RH WIND       PRES   REMARKS
BAKER          CLOUDY    16  13  88 NW5       29.44S
BILLINGS       CLOUDY    35  32  88 SW8       29.49S WCI  29
LIVINGSTON     CLOUDY    37  23  56 W14       29.49F WCI  28
MILES CITY     CLOUDY    19  14  81 SE7       29.47R WCI  10
BIG TIMBER     CLOUDY    37  27  65 W23G29    29.50S WCI  26
FORSYTH          N/A     34  28  80 W7        29.47R WCI  28
HARLOWTON      CLOUDY    36  28  73 NW17      29.47S WCI  25
LAUREL           N/A     34  25  70 SW1       29.52F
$$

REGIONAL REPORTS...DAKOTAS

CITY           SKY/WX    TMP DP  RH WIND       PRES   REMARKS
WILLISTON      CLOUDY    11   9  92 CALM      29.42R FOG
MINOT          CLOUDY    21  17  84 SW9       29.40S WCI  11
DICKINSON      CLOUDY    19  15  84 W12       29.38R WCI   7
BEACH            N/A     25  23  93 W12       29.44S WCI  14
CROSBY           N/A     18  16  93 SW10      29.41S WCI   6
TIOGA            N/A     14  14 100 CALM      29.40F
WATFORD CITY     N/A     14  10  85 SW8       29.41S WCI   3
BISMARCK       FOG       20  19  96 CALM      29.46R VSB 1/4
GRAND FORKS    CLOUDY    35  33  92 S9        29.55R FOG     WCI  28
FARGO          CLOUDY    48  35  60 S15       29.56S HAZE
BUFFALO SD       N/A     24  18  77 W12       29.34R WCI  13
RAPID CITY     CLOUDY    29  20  69 N9        29.39F WCI  20
$$

REGIONAL REPORTS...WYOMING/IDAHO/WASHINGTON

CITY           SKY/WX    TMP DP  RH WIND       PRES   REMARKS
GILLETTE       CLOUDY    28  22  78 CALM      29.45S
SHERIDAN       CLOUDY    36  28  73 NW13      29.49R WCI  27
BUFFALO WY     CLOUDY    36  25  64 N10       29.47S WCI  28
CODY           CLOUDY    29  24  82 E5        29.51R
YELLOWSTONE LA   N/A     21  19  92 CALM      29.57F
IDAHO FALLS    CLOUDY    28  27  96 SW9       29.62F WCI  19
SALMON         CLOUDY    23  23 100 CALM      29.59S
BOISE          CLOUDY    36  31  82 SE10      29.58F WCI  28
SPOKANE        MOCLDY    28  27  96 CALM      29.51F
$$

REGIONAL REPORTS...ALBERTA

CITY           SKY/WX    TMP DP  RH WIND       PRES   REMARKS
EDMONTON       CLEAR     27  18  69 SW8       29.28S WCI  18
CALGARY        MOCLDY    28  18  64 NW2       29.34R
LETHBRIDGE     MOCLDY    36  25  64 SW16      29.39F WCI  26
MEDICINE HAT   CLEAR     34  27  75 SW9       29.39R WCI  26
WATERTON GATE    N/A     36  18  48 SW21G32     N/A  WCI  24
MILK RIVER       N/A     30  27  86 CALM        N/A
$$

REGIONAL REPORTS...SASKATCHEWAN

CITY           SKY/WX    TMP DP  RH WIND       PRES   REMARKS
SWIFT CURRENT  CLOUDY    37  28  70 SW13G20   29.34R WCI  29
REGINA         PTCLDY    21  19  93 E8        29.37S WCI  12
SASKATOON      CLOUDY    34  30  86 S7        29.30R WCI  28
CYPRESS HILLS    N/A     36  18  48 W13G20      N/A  WCI  27
VAL MARIE        N/A     36  30  80 SW8         N/A  WCI  29
ROCKGLEN         N/A     36  28  75 W13         N/A  WCI  27
ASSINIBOIA       N/A     19  19 100 W6          N/A  WCI  11
$$




USA.gov is the U.S. government's official web portal to all federal, state and local government web resources and services.